Wind_Speed
19 13 14 9 9 9 11 10 10 9 10 15 18 15 13 15 17 11 10 8 6 5 5 5 6 6 7 7 8 9 11 11 14 17 16 16 18 19 19 20 19 19 19
18 16 18 19 17 16 15 13 11 11 11 11 11 11 10 9 7 7 6 5 4 5 6 6 7 7 9 9 10 11 12 13 14 17 18 18 18 19 21 21 20 20 20
19 21 20 22 22 21 19 18 16 16 15 14 12 10 8 6 4 2 2 4 5 6 7 8 11 11 11 11 12 13 14 14 15 17 18 17 19 21 22 22 22 20 19
20 22 22 20 19 19 19 17 16 14 13 12 10 8 6 4 2 0 2 5 7 9 10 12 13 13 14 15 16 16 17 18 18 16 14 18 23 22 21 21 20 16 16
21 21 20 18 17 17 17 15 14 12 11 10 8 7 5 3 1 2 4 7 9 11 12 12 13 15 15 17 18 19 20 19 17 15 17 20 23 20 18 20 22 20 17
19 19 17 16 15 15 13 12 11 10 9 7 7 5 4 3 4 5 6 10 12 13 15 16 17 17 18 19 21 22 21 17 16 17 19 20 24 22 22 21 21 18 14
16 15 14 13 13 11 10 10 9 8 7 7 7 7 6 7 8 8 9 10 11 13 14 16 16 16 15 17 18 18 20 23 24 27 28 29 26 24 23 20 20 20 20
13 12 10 10 9 8 8 7 6 6 7 7 7 8 8 7 8 7 9 12 13 15 16 17 18 19 19 19 20 22 23 23 22 23 24 26 25 24 22 23 22 23 22
10 8 7 6 6 6 6 6 6 6 7 7 8 8 8 8 10 11 13 15 16 18 18 18 18 19 19 18 18 21 23 23 22 25 26 27 27 27 27 28 23 21 7
7 6 5 4 4 3 3 2 2 4 5 6 7 8 9 10 11 13 14 15 17 18 18 17 16 17 19 19 19 19 22 24 24 23 21 19 20 21 21 23 22 15 12
7 6 5 4 4 2 1 3 5 6 6 7 8 10 11 11 13 13 13 14 15 17 18 18 17 18 20 20 20 21 24 26 25 22 15 13 14 16 17 17 17 17 17
7 6 6 4 2 3 3 3 3 5 7 7 8 9 10 11 12 13 13 13 14 16 17 19 18 18 20 21 21 21 21 21 12 13 17 19 20 20 19 19 17 19 18
8 7 5 3 2 1 2 3 3 5 6 8 8 10 11 11 11 10 11 13 14 15 17 17 20 21 21 20 16 18 22 22 21 22 22 23 20 18 15 14 17 17 18
9 8 6 4 3 1 2 2 3 5 7 8 10 10 10 10 9 10 13 14 14 14 17 18 15 15 17 19 17 16 16 16 17 19 19 18 15 13 14 14 14 14 15
9 8 7 4 2 1 2 1 3 5 6 8 9 10 11 11 11 16 15 15 16 15 18 18 15 15 14 14 14 14 14 14 14 15 15 14 14 14 14 13 13 13 15
10 8 6 5 2 1 1 2 6 6 5 6 7 8 10 10 13 15 16 15 16 15 14 12 12 13 13 14 14 15 15 15 14 15 15 15 16 16 15 15 14 15 16
9 9 7 5 4 2 0 1 5 6 7 7 6 7 8 12 13 14 14 14 11 10 8 10 11 12 13 14 15 16 17 17 17 17 17 16 16 16 16 16 15 14 15
10 9 7 5 4 2 1 1 4 5 7 9 7 8 10 13 13 11 12 10 10 10 9 10 13 14 15 16 18 18 18 18 16 15 15 16 15 15 15 15 15 14 14
11 9 7 6 4 3 0 2 4 5 7 8 9 9 12 15 11 10 10 9 10 11 11 13 15 17 18 20 21 22 21 22 22 21 20 18 16 17 15 14 13 14 15
10 10 8 6 4 2 1 3 4 6 7 8 9 10 14 14 11 11 11 11 12 12 13 15 18 20 21 20 21 21 21 19 18 16 17 15 14 12 13 13 13 14 13
11 9 8 5 4 2 1 2 3 5 6 8 9 10 13 10 10 10 12 12 12 16 16 17 20 20 20 21 22 22 22 18 16 14 14 13 12 11 11 12 13 13 14
11 10 7 6 4 2 1 2 2 3 5 9 10 11 12 10 10 11 12 13 16 16 16 17 19 20 20 21 21 23 23 23 20 14 12 12 12 13 14 14 13 15 14
11 10 8 6 4 2 1 1 2 4 5 8 10 11 11 11 12 12 14 16 17 18 18 16 18 19 20 20 19 19 22 24 26 22 18 15 13 14 14 15 16 14 15
12 10 8 6 4 2 1 1 2 3 6 8 9 10 11 12 13 14 14 17 18 20 19 18 19 19 21 21 19 20 21 23 23 24 23 22 22 18 14 14 14 15 16
12 10 8 6 4 2 0 2 2 4 6 7 9 10 11 12 12 14 16 19 19 20 21 21 21 22 23 22 21 20 24 24 24 25 24 24 24 24 25 23 22 19 20
12 10 8 6 4 2 1 1 2 4 6 7 9 10 11 12 14 16 16 20 21 21 21 22 23 23 24 24 23 26 28 28 29 28 27 25 24 25 24 25 26 25 25
Wind_Direction
134 131 133 125 123 131 137 130 120 136 162 185 187 205 217 221 222 214 204 195 188 194 210 216 227 226 242 246 250 255 260 265 274 279 278 278 281 287 289 288 287 284 282
106 109 104 106 105 106 106 111 120 128 129 148 161 165 168 166 166 174 184 190 198 210 223 229 246 250 249 255 255 261 264 265 266 279 282 286 286 289 290 290 290 284 279
94 99 95 94 96 94 92 92 95 98 101 105 114 121 127 127 130 145 195 220 230 237 239 248 257 259 262 266 265 265 265 264 267 271 282 286 290 291 288 288 287 286 279
94 93 91 90 92 90 89 88 89 90 94 96 95 90 86 81 82 91 251 249 250 255 262 265 266 264 265 268 271 268 267 266 266 271 270 283 286 286 282 288 288 286 291
96 94 93 92 92 90 90 91 90 91 91 88 87 82 72 71 49 306 285 276 276 275 274 275 273 273 276 274 276 274 273 271 266 259 263 269 274 288 287 281 281 285 279
102 99 100 98 96 92 90 88 85 81 75 72 63 52 32 14 339 349 313 295 291 291 291 287 283 281 277 275 272 272 272 265 254 252 255 260 269 273 272 276 272 279 279
98 98 97 94 87 82 77 71 68 62 51 40 29 17 359 346 334 341 325 305 294 292 291 290 288 284 283 283 279 274 273 271 272 276 278 275 279 275 272 270 268 263 264
98 96 90 84 77 70 66 65 56 42 27 15 360 347 338 328 327 338 326 311 296 289 288 290 288 287 284 282 280 279 275 275 278 275 269 270 271 273 272 271 269 273 270
99 92 80 69 66 59 51 41 25 6 354 342 335 329 325 320 326 327 322 304 298 295 296 293 290 289 289 286 279 278 279 278 277 272 270 270 270 269 270 269 263 260 246
113 101 87 85 94 85 68 47 359 331 325 324 325 326 321 315 310 314 314 301 293 295 296 293 287 285 291 291 289 284 283 282 280 280 274 274 275 272 275 271 269 231 236
119 113 105 94 88 90 60 9 336 329 330 327 320 311 305 303 302 308 310 301 296 295 295 296 292 290 291 290 287 280 278 283 284 276 268 261 273 270 270 268 265 259 260
131 125 116 105 80 25 5 346 335 329 322 314 304 302 301 305 308 309 302 302 297 296 296 294 292 290 290 290 292 290 294 300 289 288 279 276 273 273 272 269 267 271 269
143 137 132 129 106 44 338 335 332 333 316 309 311 314 313 310 309 310 310 307 307 302 297 296 295 295 294 293 293 293 294 288 282 281 278 278 276 276 277 273 266 265 265
156 154 157 155 137 91 31 11 347 327 313 318 316 315 313 317 318 320 316 312 308 305 303 301 313 304 298 297 297 295 292 287 282 280 280 280 280 276 268 263 261 260 263
162 162 155 142 121 83 44 7 334 317 312 309 308 312 318 315 316 315 318 314 314 317 319 309 309 312 314 312 307 300 292 289 284 283 280 277 272 270 267 265 254 259 257
165 165 159 151 145 118 40 341 317 322 311 311 312 317 315 309 318 323 320 325 324 324 318 317 322 323 319 313 308 304 299 292 286 283 278 277 274 274 273 268 261 253 255
169 163 160 155 160 163 120 340 320 326 331 336 340 344 332 326 329 332 332 330 332 342 340 330 322 318 312 307 305 302 296 292 285 278 277 273 268 268 269 266 262 258 257
162 161 161 160 164 158 165 319 311 327 334 336 341 343 342 341 342 341 342 352 352 350 342 323 317 317 314 312 308 303 304 304 292 282 274 271 268 266 266 263 262 259 259
163 165 161 159 166 151 202 331 320 327 335 342 342 343 342 345 344 351 356 355 341 335 327 322 318 316 316 320 317 313 308 310 307 302 294 286 277 268 264 265 263 264 264
165 168 158 162 172 141 351 340 328 333 344 346 339 339 338 344 345 344 343 340 330 324 322 324 330 330 328 325 323 323 323 317 321 311 306 301 285 272 268 267 265 267 264
162 166 161 161 166 142 307 328 326 332 338 340 336 336 340 342 334 332 335 333 329 334 330 329 332 336 339 335 333 330 324 319 326 315 313 305 293 278 272 272 271 270 265
165 166 164 169 164 158 302 331 326 332 327 340 335 339 345 345 334 330 329 329 333 338 337 336 337 340 345 343 343 340 335 332 325 321 310 300 292 284 278 276 270 272 263
166 163 160 169 161 166 326 343 323 333 334 337 337 341 341 337 330 328 329 334 339 339 345 344 342 343 349 345 343 341 336 338 337 329 311 302 287 282 277 274 271 264 260
167 163 161 170 162 178 345 318 325 343 337 334 338 343 339 335 328 328 332 342 340 339 343 342 340 339 339 341 340 342 341 338 340 338 332 309 296 288 274 265 260 258 256
166 162 162 171 165 190 273 312 333 329 326 327 338 340 338 335 331 331 334 343 340 337 336 335 335 332 331 328 325 322 324 332 334 332 326 318 310 301 283 269 263 257 253
166 162 164 165 171 189 225 292 318 319 325 326 332 335 338 337 334 332 332 339 338 336 333 332 331 329 325 324 322 321 324 325 324 323 322 315 304 301 294 280 275 264 261
Height
796 798 800 804 805 806 805 809 812 813 816 821 826 830 832 835 838 838 842 842 842 843 843 846 848 848 848 848 849 849 849 849 847 845 845 845 844 843 840 841 838 835 832
799 802 805 806 808 810 811 813 816 818 821 824 828 832 834 838 839 840 841 841 842 843 846 846 847 847 846 846 846 847 847 845 847 844 843 841 840 840 839 836 833 831 828
806 808 811 811 814 817 817 818 821 823 825 827 832 834 837 838 839 840 841 843 843 845 845 844 845 844 842 842 843 843 843 842 843 842 838 838 836 836 835 833 830 826 823
814 815 816 819 820 821 821 825 826 828 830 832 834 836 838 838 840 842 842 843 843 843 843 842 841 840 839 839 838 837 838 837 836 835 836 836 833 831 831 830 827 823 820
819 820 822 824 825 826 828 831 831 834 835 835 838 839 840 840 842 842 842 842 841 840 838 838 837 837 837 836 836 835 834 833 831 831 832 830 828 827 827 825 821 818 816
823 824 826 828 830 831 833 834 835 837 836 838 839 839 840 840 840 840 840 838 837 836 834 835 834 832 832 831 830 829 829 827 826 825 824 824 823 822 822 820 817 814 811
825 827 829 831 831 833 833 834 835 837 837 838 838 838 839 838 837 837 838 836 836 835 833 833 831 829 827 826 825 824 823 822 821 821 819 817 816 815 815 813 811 809 806
829 831 832 833 834 834 835 836 837 837 837 838 838 839 838 838 837 837 836 834 832 833 831 830 827 825 823 822 821 819 817 816 816 816 813 811 809 808 808 806 804 802 800
832 833 834 835 836 836 837 837 837 838 838 839 839 838 837 837 835 834 834 834 830 828 826 825 823 821 819 818 816 814 812 810 809 807 805 804 802 802 801 798 795 795 794
834 836 836 838 839 839 840 840 841 841 840 839 838 837 836 835 835 834 832 831 827 825 823 822 820 818 815 814 812 810 806 804 802 800 798 797 796 795 794 793 792 790 788
835 837 838 840 840 842 842 840 841 840 839 838 837 836 835 835 833 831 829 828 826 823 820 817 815 814 811 809 807 805 801 798 795 792 792 792 791 790 788 787 786 785 783
836 837 839 841 842 841 841 841 840 840 838 838 837 836 835 833 831 829 827 825 823 820 817 814 812 809 806 804 801 799 797 794 791 790 788 787 785 783 782 781 781 780 779
836 837 839 841 842 842 842 841 840 839 839 838 836 834 833 832 829 827 825 822 819 817 814 810 808 804 801 799 797 795 793 790 787 784 782 780 779 779 778 777 776 775 774
836 838 840 841 842 842 842 841 840 840 839 837 835 834 832 829 827 825 822 819 816 813 810 806 803 800 798 795 792 790 788 786 784 781 779 777 776 775 773 773 772 771 769
836 838 839 840 841 841 841 841 840 840 838 837 835 832 829 827 825 823 819 816 813 810 807 804 800 797 794 792 790 787 785 783 780 778 775 773 772 770 768 767 766 766 764
834 836 837 838 839 840 840 840 838 838 836 834 832 830 828 826 822 819 816 813 810 807 804 801 799 796 794 791 788 785 782 779 777 774 771 769 767 766 764 763 762 761 759
832 834 836 837 838 839 839 839 839 837 834 832 829 827 826 824 820 816 813 810 808 805 803 801 798 795 792 788 785 781 778 775 773 770 767 765 763 761 760 758 757 756 754
831 832 835 836 837 837 838 837 838 836 833 831 828 827 824 821 817 815 812 808 806 804 802 799 796 792 789 786 782 778 774 771 767 764 762 760 758 756 755 753 752 751 750
829 831 832 834 835 835 835 835 835 834 832 829 827 825 822 818 816 813 811 809 806 803 800 797 794 790 786 782 778 774 770 766 763 760 757 755 753 751 750 749 748 747 746
827 829 830 832 833 833 833 833 833 832 830 829 827 824 820 817 814 812 810 807 804 801 798 795 791 787 783 779 774 770 766 762 759 756 753 750 748 747 745 744 743 742 741
825 828 829 831 832 831 832 831 831 830 829 827 825 823 820 816 814 812 808 805 802 799 796 792 788 784 780 776 772 767 763 760 757 753 750 747 745 743 742 741 740 738 737
824 826 827 829 830 830 830 830 829 829 827 826 824 821 818 815 813 810 807 804 800 797 793 790 786 782 778 773 770 765 761 757 753 750 747 744 742 740 738 737 735 734 732
822 823 825 827 828 828 828 828 827 827 826 825 823 819 817 814 811 808 805 801 797 794 790 787 783 779 776 772 767 764 759 755 750 746 743 740 738 735 734 732 730 729 727
820 822 823 825 826 826 826 826 826 825 825 823 821 818 816 813 810 807 803 799 795 791 788 784 780 777 773 769 765 761 757 753 749 743 739 735 732 730 728 726 725 723 721
819 820 822 823 824 824 824 824 824 824 823 822 819 817 814 811 808 805 801 797 793 789 785 781 777 773 769 765 762 758 754 749 744 740 736 731 726 723 721 719 717 715 713
817 818 820 821 822 822 822 822 822 822 821 820 818 815 812 810 807 803 799 795 790 786 782 778 773 769 765 761 757 752 747 743 739 734 730 726 721 717 713 711 708 706 704